Content
SEND FEEDBACK

Daily
Averages
Monthly
Summary
The Bahamas

NASSAU, THE BAHAMAS


Home > Caribbean > The Bahamas
Elevation: 23 feet     Latitude: 25 03N     Longitude: 077 28W

WEATHER
 
SELECT A DAY
Number of Records: 163,677;   Date Range: 6/30/96 - 12/17/14
 
SHARE

PRINT THIS DATA

[ ← Previous Day ]
WEATHER ALMANAC - JANUARY 18, 2013
[ Next Day → ]
[ °C ]   °F
Weather ElementAverageHighLow
Temperature72.2 °F75.2 °F (10:00 am)71 °F (1:00 am)
Dewpoint65.2 °F68 °F (1:00 am)64 °F (1:00 pm)
Humidity77.2 %88 % (1:00 am)65 % (1:00 pm)
Barometer30.13 in30.17 in (10:00 am)30.06 in (1:00 am)
Wind Speed9.4 mph13.8 mph (3:00 pm)
Weather ElementAverage
Visibility6.9 mi
Wind DirectionWSW (238.1 °)

Weather ElementTotal
Precipitation---
Cooling Degree Days8.1 (Base 65)
Growing Degree Days23.1 (Base 50)
Averaged from 28 records on January 18, 2013
WEATHER CONDITIONS BREAKOUT
WIND DIRECTION BREAKOUT
WEATHER BY HOUR - JANUARY 18, 2013
[ °C ]   °F
Local TimeTemperatureDewpointHumidityBarometerVisibilityWind DirectionWind SpeedGust SpeedPrecipitationEventsConditions
1:00 AM71.0 °F67.0 °F85 %30.06 in9.0 mi°2.3 mphScattered Clouds
1:00 AM71.6 °F68.0 °F88 %30.06 in6.2 miVariable2.3 mphPartly Cloudy
2:00 AM71.6 °F68.0 °F88 %30.06 in6.2 miVariable1.2 mphPartly Cloudy
5:00 AM71.6 °F66.2 °F83 %30.07 in6.2 miWest (270°)12.7 mphPartly Cloudy
6:00 AM71.6 °F66.2 °F83 %30.09 in6.2 miNW (320°)11.5 mphMostly Cloudy
7:00 AM73.0 °F66.0 °F72 %30.11 in9.0 miWNW (300°)10.4 mph
7:00 AM73.4 °F66.2 °F78 %30.10 in6.2 miWNW (300°)10.4 mphMostly Cloudy
8:00 AM71.6 °F64.4 °F78 %30.13 in6.2 miWNW (300°)11.5 mphMostly Cloudy
9:00 AM71.6 °F64.4 °F78 %30.15 in6.2 miWNW (290°)11.5 mphMostly Cloudy
10:00 AM74.0 °F65.0 °F67 %30.17 in9.0 miWNW (290°)10.4 mphMostly Cloudy
10:00 AM75.2 °F64.4 °F69 %30.17 in6.2 miWNW (290°)10.4 mphMostly Cloudy
11:00 AM71.6 °F64.4 °F78 %30.17 in6.2 miWNW (290°)11.5 mphMostly Cloudy
12:00 PM71.6 °F64.4 °F78 %30.15 in6.2 miNW (310°)9.2 mphMostly Cloudy
1:00 PM73.4 °F64.4 °F73 %30.13 in6.2 miWNW (290°)11.5 mphMostly Cloudy
1:00 PM74.0 °F64.0 °F65 %30.13 in9.0 miWNW (290°)11.5 mphMostly Cloudy
2:00 PM73.4 °F64.4 °F73 %30.11 in6.2 miNorth (360°)10.4 mphMostly Cloudy
3:00 PM71.6 °F64.4 °F78 %30.11 in6.2 miNNW (340°)13.8 mphMostly Cloudy
4:00 PM72.0 °F64.0 °F71 %30.11 in9.0 miNNW (340°)9.2 mphMostly Cloudy
4:00 PM73.4 °F64.4 °F73 %30.11 inNorthMostly Cloudy
5:00 PM71.6 °F64.4 °F78 %30.13 in6.2 miNNW (340°)9.2 mphMostly Cloudy
6:00 PM71.6 °F64.4 °F78 %30.14 in6.2 miNorth (350°)11.5 mphOvercast
7:00 PM71.6 °F64.4 °F78 %30.15 in6.2 miNorth (360°)5.8 mphMostly Cloudy
7:00 PM72.0 °F65.0 °F72 %30.16 in9.0 miNorth5.8 mphMostly Cloudy
8:00 PM71.6 °F64.4 °F78 %30.16 in6.2 miNorth (360°)5.8 mphMostly Cloudy
9:00 PM71.6 °F64.4 °F78 %30.17 in6.2 miNorth (360°)11.5 mphMostly Cloudy
10:00 PM72.0 °F66.0 °F75 %30.17 in9.0 miNNE (20°)11.5 mphMostly Cloudy
10:00 PM71.6 °F66.2 °F83 %30.16 in6.2 miNNE (20°)11.5 mphMostly Cloudy
11:00 PM71.6 °F66.2 °F83 %30.17 in6.2 miNE (40°)9.2 mphMostly Cloudy
Hourly data recorded from MYNN, located miles away from Nassau, The Bahamas







STORIES FROM OUR PARTNERS